N1BFO Weather Reports


Display with metric or nautical units.
time (UTC)temp
F
wind
direction
speed
MPH
gust
MPH
rain 1hr
in
rain 24hr
in
rain mn
in
humidity
%
barometer
mb
20260904095028 64 0 0.0 1.0 0.00 0.13 0.00 97 1009.2
20260904094546 64 0 0.0 2.0 0.00 0.13 0.00 97 1009.3
20260904094027 64 0 0.0 2.0 0.00 0.13 0.00 97 1009.3
20260904093527 64 10 0.0 1.0 0.00 0.13 0.00 97 1009.3
20260904093044 64 0 0.0 0.0 0.00 0.13 0.00 97 1009.4
20260904092528 64 0 0.0 0.0 0.00 0.13 0.00 97 1009.4
20260904092029 64 0 0.0 1.0 0.00 0.13 0.00 97 1009.4
20260904091549 64 0 0.0 1.0 0.00 0.13 0.00 97 1009.4
20260904091027 64 0 0.0 0.0 0.00 0.13 0.00 97 1009.4
20260904090526 64 0 0.0 1.0 0.00 0.13 0.00 97 1009.4
20260904090047 64 0 0.0 1.0 0.00 0.13 0.00 97 1009.3
20260904085531 64 0 0.0 1.0 0.00 0.22 0.00 97 1009.3
20260904085028 64 0 0.0 0.0 0.00 0.22 0.00 97 1009.3
20260904084545 64 0 0.0 1.0 0.00 0.22 0.00 97 1009.2
20260904084025 64 0 0.0 1.0 0.00 0.22 0.00 97 1009.3
20260904083528 64 0 0.0 1.0 0.00 0.22 0.00 97 1009.3
20260904083055 64 0 0.0 1.0 0.00 0.22 0.00 97 1009.4
20260904082527 64 0 0.0 0.0 0.00 0.22 0.00 97 1009.4
20260904082027 64 0 0.0 0.0 0.00 0.22 0.00 97 1009.4
20260904081545 64 0 0.0 0.0 0.00 0.22 0.00 97 1009.5
20260904081024 64 0 0.0 0.0 0.00 0.22 0.00 97 1009.5
20260904080528 64 0 0.0 0.0 0.00 0.22 0.00 97 1009.6
20260904080044 64 0 0.0 0.0 0.00 0.22 0.00 97 1009.6
20260904075527 64 0 0.0 0.0 0.00 0.23 0.00 97 1009.7
20260904075025 64 0 0.0 0.0 0.00 0.23 0.00 97 1009.6
20260904074605 65 0 0.0 0.0 0.00 0.23 0.00 97 1009.6
20260904074024 64 0 0.0 0.0 0.00 0.23 0.00 97 1009.7
20260904073528 64 0 0.0 0.0 0.00 0.23 0.00 97 1009.6
20260904073050 64 0 0.0 0.0 0.00 0.23 0.00 97 1009.6
20260904072527 64 0 0.0 0.0 0.00 0.23 0.00 97 1009.6
20260904072023 64 0 0.0 0.0 0.00 0.23 0.00 97 1009.6
20260904071546 64 0 0.0 0.0 0.00 0.23 0.00 97 1009.6
20260904071027 64 0 0.0 1.0 0.00 0.23 0.00 97 1009.6
20260904070530 64 0 0.0 1.0 0.00 0.23 0.00 97 1009.5
20260904070044 64 0 0.0 0.0 0.00 0.23 0.00 97 1009.6
20260904065525 64 0 0.0 0.0 0.00 0.23 0.00 97 1009.7
20260904065024 64 0 0.0 0.0 0.00 0.23 0.00 97 1009.7
20260904064552 64 0 0.0 0.0 0.00 0.23 0.00 97 1009.6
20260904064027 64 0 0.0 0.0 0.00 0.23 0.00 97 1009.7
20260904063526 64 0 0.0 0.0 0.00 0.23 0.00 97 1009.8
20260904063105 65 0 0.0 0.0 0.00 0.23 0.00 97 1009.8
20260904062530 64 0 0.0 0.0 0.00 0.23 0.00 97 1009.8
20260904062026 64 0 0.0 0.0 0.00 0.23 0.00 97 1009.9
20260904061545 64 0 0.0 0.0 0.00 0.23 0.00 97 1010.0
20260904061028 64 0 0.0 0.0 0.00 0.23 0.00 97 1010.1
20260904060525 64 0 0.0 0.0 0.00 0.23 0.00 97 1010.1
20260904060106 64 0 0.0 0.0 0.00 0.23 0.00 97 1010.3
20260904055525 64 0 0.0 0.0 0.00 0.23 0.00 97 1010.3
20260904055025 64 0 0.0 0.0 0.00 0.23 0.00 97 1010.4
20260904054553 64 0 0.0 0.0 0.00 0.23 0.00 97 1010.7
20260904054027 64 0 0.0 1.0 0.00 0.23 0.00 97 1010.8
20260904053527 64 0 0.0 1.0 0.00 0.23 0.00 97 1010.8
20260904053046 64 0 0.0 1.0 0.00 0.23 0.00 97 1010.9
20260904052528 64 0 0.0 1.0 0.00 0.23 0.00 97 1010.9
20260904052032 65 0 0.0 1.0 0.00 0.23 0.00 97 1010.9
20260904051548 65 0 0.0 1.0 0.00 0.23 0.00 97 1011.0
20260904051025 65 0 0.0 1.0 0.00 0.23 0.00 97 1010.9
20260904050527 65 139 0.0 1.0 0.00 0.23 0.00 97 1010.9
20260904050046 65 0 0.0 1.0 0.00 0.23 0.00 97 1010.8
20260904045526 64 276 0.0 1.0 0.00 0.23 0.00 97 1010.9
20260904045024 64 0 0.0 1.0 0.00 0.23 0.00 97 1010.9
20260904044555 64 278 0.0 1.0 0.00 0.23 0.00 96 1010.9
20260904044025 64 0 0.0 1.0 0.00 0.23 0.00 97 1011.1
20260904043527 65 0 0.0 1.0 0.00 0.23 0.00 96 1011.1
20260904043047 65 0 0.0 1.0 0.00 0.23 0.00 97 1011.0
20260904042528 65 286 0.0 1.0 0.00 0.23 0.00 96 1011.1
20260904042024 65 0 0.0 1.0 0.00 0.23 0.00 97 1011.0
20260904041545 65 0 0.0 1.0 0.00 0.23 0.00 96 1011.0
20260904041030 65 0 0.0 1.0 0.00 0.23 0.00 96 1011.1
20260904040531 65 0 0.0 1.0 0.00 0.23 0.00 97 1011.1
20260904040046 65 0 0.0 0.0 0.00 0.23 0.00 97 1011.2
20260904035528 65 0 0.0 0.0 0.00 0.23 0.23 97 1011.1
20260904035025 65 0 0.0 0.0 0.00 0.23 0.23 96 1011.2
20260904034558 65 0 0.0 0.0 0.00 0.23 0.23 96 1011.0
20260904034024 65 0 0.0 0.0 0.00 0.23 0.23 97 1011.1
20260904033528 65 0 0.0 0.0 0.00 0.23 0.23 96 1011.3
20260904033049 65 0 0.0 0.0 0.00 0.23 0.23 96 1011.2
20260904032525 65 0 0.0 0.0 0.00 0.23 0.23 96 1011.2
20260904032027 65 0 0.0 0.0 0.00 0.23 0.23 96 1011.2
20260904031547 65 0 0.0 0.0 0.00 0.23 0.23 96 1011.2
20260904031028 66 0 0.0 0.0 0.00 0.23 0.23 96 1011.2
20260904030531 66 0 0.0 0.0 0.00 0.23 0.23 96 1011.2
20260904030045 66 0 0.0 0.0 0.00 0.23 0.23 96 1011.2
20260904025527 66 0 0.0 0.0 0.00 0.23 0.23 96 1011.3
20260904025027 66 0 0.0 0.0 0.00 0.23 0.23 96 1011.2
20260904024545 66 0 0.0 0.0 0.00 0.23 0.23 96 1011.2
20260904024025 66 0 0.0 0.0 0.00 0.23 0.23 96 1011.3
20260904023529 66 0 0.0 0.0 0.00 0.23 0.23 96 1011.4
20260904023053 66 0 0.0 0.0 0.00 0.23 0.23 96 1011.3
20260904022524 66 0 0.0 0.0 0.00 0.23 0.23 96 1011.4
20260904022023 66 0 0.0 0.0 0.00 0.23 0.23 96 1011.4
20260904021549 66 0 0.0 0.0 0.00 0.23 0.23 96 1011.5
20260904021027 66 0 0.0 0.0 0.00 0.23 0.23 96 1011.5
20260904020527 66 0 0.0 0.0 0.00 0.23 0.23 96 1011.5
20260904020048 67 0 0.0 0.0 0.00 0.23 0.23 96 1011.5
20260904015525 67 0 0.0 0.0 0.00 0.23 0.23 96 1011.5
20260904015027 67 0 0.0 0.0 0.00 0.23 0.23 96 1011.6
20260904014549 67 0 0.0 0.0 0.00 0.23 0.23 96 1011.5
20260904014029 67 0 0.0 0.0 0.00 0.23 0.23 96 1011.6
20260904013527 67 0 0.0 0.0 0.00 0.23 0.23 96 1011.6
20260904013053 67 0 0.0 0.0 0.00 0.23 0.23 96 1011.6
20260904012530 67 0 0.0 0.0 0.00 0.23 0.23 96 1011.7
20260904012032 67 0 0.0 0.0 0.00 0.23 0.23 96 1011.8
20260904011548 67 0 0.0 0.0 0.00 0.23 0.23 96 1011.8
20260904011030 67 0 0.0 0.0 0.00 0.23 0.23 95 1011.8
20260904010528 67 0 0.0 0.0 0.00 0.23 0.23 95 1011.7
20260904010053 67 0 0.0 0.0 0.00 0.23 0.23 95 1011.8
20260904005526 67 0 0.0 0.0 0.00 0.23 0.23 95 1011.7
20260904005024 67 0 0.0 0.0 0.00 0.23 0.23 95 1011.6
20260904004559 67 0 0.0 0.0 0.00 0.23 0.23 95 1011.5
20260904004026 67 0 0.0 0.0 0.00 0.23 0.23 95 1011.5
20260904003531 67 0 0.0 0.0 0.00 0.23 0.23 95 1011.3
20260904003049 67 0 0.0 0.0 0.00 0.23 0.23 95 1011.4
20260904002526 68 0 0.0 0.0 0.00 0.23 0.23 94 1011.2
20260904002028 68 0 0.0 0.0 0.00 0.23 0.23 94 1011.2
20260904001544 68 0 0.0 0.0 0.00 0.23 0.23 94 1011.1
20260904001029 68 0 0.0 0.0 0.00 0.23 0.23 95 1011.0
20260904000526 68 0 0.0 0.0 0.00 0.23 0.23 95 1010.9
20260903235528 69 0 0.0 1.0 0.00 0.23 0.23 94 1011.0
20260903235028 69 0 0.0 1.0 0.00 0.23 0.23 94 1011.0
20260903234549 69 0 0.0 1.0 0.00 0.23 0.23 94 1010.9
20260903234028 69 0 0.0 0.0 0.00 0.23 0.23 93 1010.9
20260903233532 69 0 0.0 0.0 0.00 0.23 0.23 93 1010.8
20260903233047 69 0 0.0 0.0 0.00 0.23 0.23 93 1010.8
20260903232526 70 0 0.0 0.0 0.00 0.23 0.23 92 1010.8
20260903232025 70 0 0.0 0.0 0.00 0.23 0.23 92 1010.9
20260903231545 70 0 0.0 0.0 0.00 0.23 0.23 92 1010.9
20260903231027 70 0 0.0 0.0 0.00 0.23 0.23 91 1011.0
20260903230524 71 0 0.0 0.0 0.00 0.23 0.23 91 1011.1
20260903230053 71 0 0.0 0.0 0.00 0.23 0.23 91 1011.0
20260903225531 71 0 0.0 1.0 0.00 0.23 0.23 90 1010.9
20260903225025 72 0 0.0 1.0 0.00 0.23 0.23 90 1010.9
20260903224551 72 0 0.0 1.0 0.00 0.23 0.23 89 1010.8
20260903224031 72 0 0.0 0.0 0.00 0.23 0.23 88 1010.8
20260903223528 73 0 0.0 0.0 0.00 0.23 0.23 88 1010.9
20260903223045 73 0 0.0 0.0 0.00 0.23 0.23 87 1010.9
20260903222525 73 0 0.0 0.0 0.00 0.23 0.23 87 1011.0
20260903222029 74 0 0.0 0.0 0.00 0.23 0.23 86 1011.2
20260903221546 74 0 0.0 0.0 0.00 0.23 0.23 86 1011.4
20260903221025 74 0 0.0 1.0 0.00 0.23 0.23 85 1011.4
20260903220524 74 0 0.0 1.0 0.00 0.23 0.23 84 1011.4
20260903220105 74 0 0.0 1.0 0.00 0.23 0.23 86 1011.3
20260903215528 74 0 0.0 1.0 0.00 0.23 0.23 84 1011.3
20260903215028 74 0 0.0 0.0 0.00 0.23 0.23 85 1011.3
20260903214546 74 0 0.0 0.0 0.00 0.23 0.23 84 1011.2
20260903214027 74 0 0.0 0.0 0.00 0.23 0.23 84 1011.2
20260903213528 75 0 0.0 1.0 0.00 0.23 0.23 82 1011.1
20260903213045 75 0 0.0 1.0 0.00 0.23 0.23 82 1011.1
20260903212529 75 0 0.0 0.0 0.00 0.23 0.23 83 1011.2
20260903212029 75 0 0.0 1.0 0.00 0.23 0.23 82 1011.3
20260903211615 75 0 0.0 1.0 0.00 0.23 0.23 81 1011.2
20260903211030 75 0 0.0 2.0 0.00 0.23 0.23 81 1011.1
20260903210527 75 0 0.0 2.0 0.00 0.23 0.23 80 1011.1
20260903210054 75 0 0.0 3.0 0.00 0.23 0.23 79 1011.2
20260903205525 75 136 1.0 3.0 0.00 0.23 0.23 80 1011.2
20260903205026 75 0 0.0 1.0 0.00 0.23 0.23 81 1011.2
20260903204546 75 0 0.0 1.0 0.00 0.23 0.23 80 1011.3
20260903204025 75 110 0.0 1.0 0.00 0.23 0.23 82 1011.4
20260903203528 75 110 0.0 1.0 0.00 0.23 0.23 81 1011.4
20260903203046 74 278 0.0 1.0 0.00 0.23 0.23 80 1011.4
20260903202527 74 278 0.0 1.0 0.00 0.23 0.23 81 1011.4
20260903202027 74 0 0.0 1.0 0.00 0.23 0.23 81 1011.4
20260903201553 74 278 0.0 1.0 0.00 0.23 0.23 82 1011.5
20260903201026 74 0 0.0 4.0 0.00 0.23 0.23 80 1011.5
20260903200527 74 0 0.0 4.0 0.00 0.23 0.23 82 1011.6
20260903200048 74 127 1.0 4.0 0.00 0.23 0.23 80 1011.7
20260903195525 74 44 0.0 2.0 0.00 0.23 0.23 81 1011.6
20260903195028 74 333 0.0 2.0 0.00 0.23 0.23 80 1011.8
20260903194548 74 108 0.0 2.0 0.00 0.23 0.23 80 1011.9
20260903194024 74 0 0.0 2.0 0.00 0.23 0.23 80 1012.0
20260903193526 74 0 0.0 2.0 0.00 0.23 0.23 80 1012.0
20260903193046 74 143 1.0 3.0 0.00 0.23 0.23 80 1012.1
20260903192530 74 345 0.0 3.0 0.00 0.23 0.23 81 1012.2
20260903192024 74 0 0.0 3.0 0.00 0.23 0.23 83 1012.2
20260903191542 73 0 1.0 3.0 0.00 0.23 0.23 81 1012.1
20260903191025 73 85 0.0 5.0 0.00 0.23 0.23 81 1012.1
20260903190530 73 74 1.0 5.0 0.00 0.23 0.23 80 1012.1
20260903190048 74 111 1.0 3.0 0.00 0.23 0.23 81 1012.1
20260903185527 73 0 0.0 3.0 0.00 0.23 0.23 83 1012.2
20260903185029 73 0 0.0 3.0 0.00 0.23 0.23 80 1012.3
20260903184545 74 304 0.0 3.0 0.00 0.23 0.23 81 1012.4
20260903184027 74 338 0.0 1.0 0.00 0.23 0.23 81 1012.5
20260903183530 74 338 0.0 1.0 0.00 0.23 0.23 82 1012.5
20260903183052 73 0 0.0 1.0 0.00 0.23 0.23 83 1012.6
20260903182527 73 0 0.0 2.0 0.00 0.23 0.23 83 1012.6
20260903182027 72 0 0.0 2.0 0.00 0.23 0.23 82 1012.5
20260903181545 72 103 0.0 2.0 0.00 0.23 0.23 83 1012.7
20260903181028 73 95 0.0 3.0 0.00 0.23 0.23 82 1012.8
20260903180528 72 0 0.0 3.0 0.00 0.23 0.23 83 1013.0
20260903180050 72 23 0.0 3.0 0.00 0.23 0.23 84 1013.0
20260903175528 72 0 0.0 3.0 0.00 0.23 0.23 84 1013.0
20260903175027 72 342 0.0 3.0 0.00 0.23 0.23 83 1013.0
20260903174600 72 0 0.0 3.0 0.00 0.23 0.23 82 1013.1
20260903174028 72 336 1.0 4.0 0.00 0.23 0.23 82 1013.2
20260903173525 72 23 0.0 4.0 0.00 0.23 0.23 82 1013.3
20260903173055 73 5 0.0 4.0 0.00 0.23 0.23 84 1013.3
20260903172526 72 110 1.0 4.0 0.00 0.23 0.23 84 1013.4
20260903172024 72 0 0.0 3.0 0.00 0.23 0.23 85 1013.3
20260903171548 71 0 0.0 3.0 0.00 0.23 0.23 85 1013.1
20260903171025 71 347 0.0 1.0 0.00 0.23 0.23 87 1013.0
20260903170527 71 0 0.0 2.0 0.00 0.23 0.23 87 1013.1
20260903170105 70 0 0.0 2.0 0.00 0.23 0.23 89 1013.0
20260903165525 70 356 0.0 5.0 0.00 0.23 0.23 87 1013.1
20260903165024 70 348 1.0 5.0 0.00 0.23 0.23 87 1013.1
20260903164554 70 0 0.0 2.0 0.00 0.23 0.23 87 1013.0
20260903164027 70 124 0.0 3.0 0.00 0.23 0.23 87 1013.2
20260903163527 69 355 0.0 4.0 0.00 0.23 0.23 87 1013.1
20260903163045 70 335 1.0 4.0 0.00 0.23 0.23 85 1013.1
20260903162526 70 0 0.0 4.0 0.00 0.23 0.23 87 1013.2
20260903162025 70 352 1.0 4.0 0.00 0.23 0.23 87 1013.2
20260903161546 70 340 0.0 2.0 0.00 0.23 0.23 87 1013.1
20260903161027 69 98 0.0 2.0 0.00 0.23 0.23 90 1013.1
20260903160525 69 119 0.0 3.0 0.00 0.23 0.23 89 1013.2
20260903160047 68 0 0.0 3.0 0.00 0.23 0.23 90 1013.2
20260903155525 68 79 0.0 3.0 0.00 0.23 0.23 90 1013.3
20260903155026 68 75 0.0 3.0 0.00 0.23 0.23 91 1013.3
20260903154546 67 332 1.0 3.0 0.00 0.23 0.23 90 1013.4
20260903154027 67 347 0.0 3.0 0.00 0.23 0.23 91 1013.4
20260903153525 67 90 0.0 2.0 0.00 0.23 0.23 92 1013.5
20260903153054 66 86 0.0 2.0 0.00 0.23 0.23 91 1013.7
20260903152528 66 1 0.0 2.0 0.00 0.23 0.23 92 1013.9
20260903152028 66 0 0.0 1.0 0.00 0.23 0.23 91 1013.9
20260903151553 66 0 0.0 1.0 0.00 0.23 0.23 92 1013.9
20260903151026 66 92 0.0 1.0 0.00 0.23 0.23 92 1013.8
20260903150526 66 0 0.0 1.0 0.00 0.23 0.23 92 1014.0
20260903150046 66 12 0.0 1.0 0.00 0.23 0.23 92 1014.0
20260903145530 66 0 0.0 1.0 0.00 0.23 0.23 92 1014.1
20260903145028 66 0 0.0 1.0 0.00 0.23 0.23 93 1013.9
20260903144548 66 0 0.0 3.0 0.00 0.23 0.23 93 1014.1
20260903144025 65 0 0.0 3.0 0.00 0.23 0.23 94 1014.2
20260903143528 65 0 0.0 1.0 0.00 0.23 0.23 93 1014.2
20260903143053 65 0 0.0 1.0 0.00 0.23 0.23 93 1014.1
20260903142525 65 0 0.0 1.0 0.00 0.23 0.23 94 1014.1
20260903142027 65 352 0.0 1.0 0.00 0.23 0.23 93 1014.1
20260903141549 64 134 0.0 0.0 0.00 0.23 0.23 93 1014.1
20260903141028 64 0 0.0 2.0 0.00 0.23 0.23 94 1014.2
20260903140527 64 165 0.0 2.0 0.00 0.23 0.23 94 1014.4
20260903140047 64 0 0.0 1.0 0.00 0.23 0.23 94 1014.4
20260903135525 64 0 0.0 1.0 0.00 0.23 0.23 94 1014.5
20260903135025 64 0 0.0 0.0 0.00 0.23 0.23 95 1014.6
20260903134547 64 0 0.0 0.0 0.00 0.23 0.23 94 1014.5
20260903134032 64 153 0.0 0.0 0.00 0.23 0.23 95 1014.5
20260903133528 64 0 0.0 0.0 0.00 0.23 0.23 95 1014.5
20260903133054 63 0 0.0 0.0 0.00 0.23 0.23 95 1014.4
20260903132527 63 0 0.0 1.0 0.00 0.23 0.23 95 1014.4
20260903132028 63 0 0.0 1.0 0.00 0.23 0.23 95 1014.4
20260903131555 63 158 0.0 1.0 0.00 0.23 0.23 95 1014.4
20260903131026 63 0 0.0 1.0 0.00 0.23 0.23 95 1014.4
20260903130525 63 0 0.0 1.0 0.00 0.23 0.23 95 1014.4
20260903130108 63 0 0.0 1.0 0.00 0.23 0.23 95 1014.3
20260903125527 63 0 0.0 0.0 0.00 0.23 0.23 95 1014.4
20260903125027 63 0 0.0 0.0 0.00 0.23 0.23 95 1014.5
20260903124547 63 0 0.0 0.0 0.00 0.23 0.23 95 1014.6
20260903124027 63 0 0.0 0.0 0.00 0.23 0.23 95 1014.7
20260903123526 63 0 0.0 0.0 0.00 0.23 0.23 96 1014.8
20260903123048 63 0 0.0 0.0 0.00 0.23 0.23 96 1015.0
20260903122531 62 0 0.0 0.0 0.00 0.23 0.23 96 1015.0
20260903122026 62 0 0.0 0.0 0.00 0.23 0.23 96 1015.0
20260903121546 62 0 0.0 0.0 0.00 0.23 0.23 96 1015.1
20260903121027 62 0 0.0 0.0 0.00 0.23 0.23 96 1015.1
20260903120530 62 0 0.0 0.0 0.00 0.23 0.23 96 1015.1
20260903120048 62 0 0.0 0.0 0.00 0.23 0.23 96 1015.1
20260903115531 62 0 0.0 1.0 0.00 0.23 0.23 96 1015.2
20260903115028 62 0 0.0 1.0 0.00 0.23 0.23 96 1015.2
20260903114545 62 0 0.0 0.0 0.00 0.23 0.23 96 1015.2
20260903114028 61 0 0.0 0.0 0.00 0.23 0.23 96 1015.3
20260903113526 61 0 0.0 0.0 0.00 0.23 0.23 95 1015.4
20260903113045 61 0 0.0 0.0 0.01 0.23 0.23 96 1015.3
20260903112525 61 0 0.0 0.0 0.01 0.23 0.23 96 1015.4
20260903112028 61 0 0.0 0.0 0.01 0.23 0.23 95 1015.3
20260903111619 61 0 0.0 0.0 0.01 0.23 0.23 95 1015.3
20260903111028 61 0 0.0 0.0 0.01 0.23 0.23 95 1015.2
20260903110527 61 0 0.0 0.0 0.01 0.23 0.23 95 1015.3
20260903110107 61 0 0.0 1.0 0.01 0.23 0.23 95 1015.4
20260903105531 61 0 0.0 1.0 0.05 0.23 0.23 95 1015.3
20260903105025 61 0 0.0 0.0 0.05 0.23 0.23 95 1015.3
20260903104600 61 0 0.0 0.0 0.06 0.23 0.23 95 1015.4
20260903104026 61 0 0.0 0.0 0.06 0.23 0.23 95 1015.4
20260903103525 61 0 0.0 0.0 0.08 0.23 0.23 95 1015.4
20260903103045 61 0 0.0 0.0 0.08 0.22 0.22 95 1015.3
20260903102526 61 0 0.0 0.0 0.08 0.22 0.22 95 1015.4
20260903102025 61 0 0.0 0.0 0.08 0.22 0.22 95 1015.4
20260903101545 61 0 0.0 0.0 0.08 0.22 0.22 95 1015.2
20260903101025 61 0 0.0 1.0 0.12 0.22 0.22 95 1015.1
20260903100527 61 0 0.0 1.0 0.12 0.22 0.22 95 1015.2
20260903100048 61 0 0.0 1.0 0.11 0.21 0.21 95 1015.2
20260903095527 61 0 0.0 1.0 0.08 0.18 0.18 95 1015.2